Flag for Canada Weather past 2 weeks in Prince Rupert, British Columbia, Canada

Now
55 °F

Mostly cloudy.


Feels Like: 54 °F
Forecast: 48 / 53 °F
Wind: 6 mph from South

Location: Prince Rupert

Current Time: Aug 31, 2015 at 5:50:33 PM

Latest Report: Aug 31, 2015 at 5:00 PM


Visibility: 9 mi

Pressure: 29.61 "Hg

Humidity: 77%

Dew point: 48 °F

Location of Prince RupertLocation

Historic Weather in Prince Rupert — Graph

°F

Prince Rupert temperature yesterday

Maximum temperature yesterday: 55 °F (at 9:00 AM)
Minimum temperature yesterday: 50 °F (at 9:57 PM)
Average temperature yesterday: 53 °F

Past Weeks' High & Low Weather Summary

 TemperatureHumidityPressure
High70 °F (Aug 26, 4:00 PM)100% (Aug 17, 9:00 PM)30.32 "Hg (Aug 17, 9:00 PM)
Low46 °F (Aug 31, 5:00 AM)53% (Aug 26, 4:00 PM)29.23 "Hg (Aug 29, 2:00 PM)
Average57 °F87%29.91 "Hg
* Reported Aug 16 4:04 PM — Aug 31 4:00 PM, Prince Rupert, Weather by CustomWeather, © 2015

Note: Actual official high and low records may vary slightly from our data, if they occured in-between our weather recording intervals... More about our weather records

Advertising

Prince Rupert weather history for previous 24 hours

 ConditionsComfort  
Time TempWeatherWind HumidityBarometerVisibility
4:00 PM
Mon, Aug 31
55 °FOvercast.7 mph72%29.61 "Hg9 mi
3:00 PM55 °FPartly sunny.7 mph77%29.62 "Hg9 mi
2:00 PM55 °FPartly sunny.5 mph77%29.63 "Hg9 mi
1:00 PM55 °FPartly sunny.3 mph77%29.63 "Hg9 mi
12:00 PM54 °FScattered clouds.7 mph88%29.63 "Hg9 mi
11:04 AM52 °FLight rain. Fog.5 mph94%29.62 "Hg6 mi
10:00 AM54 °FMostly cloudy.9 mph82%29.61 "Hg9 mi
9:00 AM52 °FPartly sunny.7 mph88%29.59 "Hg9 mi
8:00 AM52 °FPartly sunny.6 mph88%29.58 "Hg9 mi
7:00 AM50 °FPassing clouds.6 mph94%29.57 "Hg9 mi
6:00 AM48 °FLight rain. Mostly cloudy.6 mph94%29.56 "Hg9 mi
5:58 AM48 °FLight rain. Mostly cloudy.6 mph94%29.56 "Hg9 mi
5:00 AM46 °FMostly cloudy.6 mph100%29.55 "Hg9 mi
4:47 AM48 °FOvercast.5 mph94%29.55 "Hg9 mi
4:00 AM52 °FLight rain. Overcast.9 mph82%29.53 "Hg9 mi
3:00 AM52 °FMostly cloudy.5 mph88%29.53 "Hg9 mi
2:00 AM52 °FPartly cloudy.6 mph82%29.52 "Hg9 mi
1:00 AM52 °FOvercast.7 mph88%29.50 "Hg9 mi
12:00 AM52 °FMostly cloudy.8 mph88%29.48 "Hg9 mi
11:00 PM
Sun, Aug 30
52 °FLight rain. Passing clouds.7 mph88%29.45 "Hg9 mi
10:00 PM52 °FMostly cloudy.5 mph88%29.43 "Hg9 mi
9:57 PM50 °FOvercast.6 mph94%29.43 "Hg9 mi
9:00 PM52 °FMostly cloudy.8 mph88%29.41 "Hg9 mi
8:00 PM54 °FLight rain. Fog.12 mph88%29.37 "Hg6 mi
7:03 PM55 °FLight rain. Partly sunny.6 mph88%29.34 "Hg9 mi
6:00 PM55 °FCloudy.5 mph88%29.32 "Hg9 mi
5:00 PM54 °FLight rain. Fog.7 mph94%29.28 "Hg3 mi
Weather by CustomWeather, © 2015

See weather overviewHow to use our weather pages